EDT,Max TemperatureF,Mean TemperatureF,Min TemperatureF,Max Dew PointF,MeanDew PointF,Min DewpointF,Max Humidity, Mean Humidity, Min Humidity, Max Sea Level PressureIn, Mean Sea Level PressureIn, Min Sea Level PressureIn, Max VisibilityMiles, Mean VisibilityMiles, Min VisibilityMiles, Max Wind SpeedMPH, Mean Wind SpeedMPH, Max Gust SpeedMPH,PrecipitationIn, CloudCover, Events, WindDirDegrees
2012-4-1,68,58,51,63,53,47,94,83,57,29.93,29.83,29.74,10,10,2,24,11,33,0.31,5,Rain-Thunderstorm,36
2012-4-2,77,64,51,59,51,36,90,65,28,29.97,29.78,29.65,10,10,10,23,11,26,0.00,1,,308
2012-4-3,72,56,42,53,44,34,100,74,29,30.06,30.00,29.93,10,8,1,16,2,22,0.00,0,,173
2012-4-4,84,72,61,64,60,57,97,73,41,29.89,29.77,29.63,10,10,10,10,6,21,0.00,2,Rain,238
2012-4-5,66,58,48,61,51,43,96,73,52,29.85,29.77,29.66,10,9,2,17,9,26,0.28,6,Rain-Thunderstorm,32
2012-4-6,59,52,42,47,43,36,93,81,53,30.08,29.87,29.76,10,8,2,16,11,23,0.62,6,Rain,15
2012-4-7,64,50,35,42,34,25,100,66,23,30.26,30.16,30.08,10,9,0,16,4,20,0.00,0,Fog,313
2012-4-8,75,60,45,53,39,29,86,53,19,30.18,30.06,29.96,10,10,10,15,7,18,0.00,0,,256
2012-4-9,73,63,54,54,41,27,87,51,19,30.07,29.99,29.92,10,10,10,16,9,20,0.00,0,,250
2012-4-10,77,64,51,50,43,29,86,52,20,30.00,29.90,29.81,10,10,9,16,9,25,0.00,1,,259
2012-4-11,63,54,45,49,33,26,64,42,25,30.13,29.96,29.80,10,10,10,21,11,28,0.00,1,,326
2012-4-12,63,50,36,40,30,26,80,51,25,30.21,30.17,30.13,10,10,10,15,8,24,0.00,0,,309
2012-4-13,69,54,39,44,38,31,89,61,26,30.31,30.25,30.19,10,10,9,12,4,,0.00,1,,237
2012-4-14,73,56,39,55,44,38,93,65,29,30.39,30.31,30.25,10,10,10,14,3,24,0.00,0,,191
2012-4-15,79,69,60,58,57,54,83,68,50,30.28,30.24,30.20,10,10,10,17,8,25,0.00,2,,209
2012-4-16,82,71,60,60,57,55,93,66,38,30.26,30.20,30.14,10,10,10,16,8,23,0.00,0,,220
2012-4-17,84,73,62,65,61,57,93,70,49,30.19,30.14,30.07,10,10,8,13,7,18,0.00,1,,206
2012-4-18,78,69,63,64,60,57,93,74,56,30.15,30.10,30.03,10,10,7,15,5,,0.02,4,Rain,129
2012-4-19,66,62,57,63,57,55,100,89,77,30.08,30.05,30.01,10,7,0,10,7,,0.44,8,Rain,14
2012-4-20,75,67,59,63,58,54,100,80,60,30.03,29.96,29.89,10,10,8,9,5,,0.00,5,,74
2012-4-21,80,69,59,66,63,59,100,91,58,29.90,29.84,29.75,10,4,0,15,2,24,0.01,6,Fog-Rain,164
2012-4-22,69,60,53,65,60,50,100,90,73,29.74,29.48,29.38,10,7,1,16,10,23,0.41,8,Rain,330
2012-4-23,60,51,43,50,43,34,94,75,39,29.77,29.57,29.49,10,10,6,23,12,31,0.01,7,Rain,283
2012-4-24,66,52,39,37,31,22,89,50,20,29.86,29.77,29.73,10,10,10,22,9,29,0.00,1,,257
2012-4-25,70,58,48,52,45,36,87,65,43,30.01,29.95,29.87,10,10,10,17,8,24,0.00,3,,235
2012-4-26,84,70,57,61,57,53,86,61,39,29.96,29.86,29.76,10,10,10,21,10,30,0.00,3,Rain-Thunderstorm,226
2012-4-27,82,72,62,61,59,57,90,70,42,30.11,29.99,29.88,10,10,9,14,9,26,0.00,3,Rain,204
2012-4-28,73,66,60,63,59,54,100,81,65,30.18,30.13,30.07,10,9,2,14,8,21,0.37,5,Rain-Thunderstorm,48
2012-4-29,71,64,57,61,57,54,87,79,68,30.23,30.18,30.13,10,10,7,10,4,,0.00,7,,63
2012-4-30,77,66,57,66,60,54,93,78,56,30.29,30.23,30.19,10,10,9,13,7,,0.00,3,,113